Location: Bremen
(53.0796°N, 8.8241°E)
Time: 09:10:09

Tiangong 2 - Visible Passes

Search period start: 20 March 2018 00:00
Search period end: 30 March 2018 01:00
Orbit: 383 x 388 km, 42.8° (Epoch: 19 March)

Date Brightness Start Highest point End Pass type
(mag) Time Alt. Az. Time Alt. Az. Time Alt. Az.
20 Mar 3.4 05:11:33 12° SSW 05:12:36 13° S 05:14:11 10° SSE visible
21 Mar 3.8 04:15:02 11° SSE 04:15:02 11° SSE 04:15:18 10° SSE visible
22 Mar 3.5 04:50:48 12° S 04:50:48 12° S 04:51:53 10° SSE visible
